.
WxDataArchive / Data Records for 2015-09-23
2015-09-22 September 2015 2015-09-24

Data Records for Wednesday, 23 September 2015

Time	Temp	Chill	HIndex	Humid	Dewpt	 Wind 	HiWind	WindDir	Rain 	Barom
-----	----	-----	------	-----	-----	------	------	-------	-----	-----
00:00	55.7	55.7	55.7	81	50.0	0	0	---	0.00	30.210 
00:05	55.6	55.6	55.6	81	49.9	0	0	---	0.00	30.210 
00:10	55.4	55.4	55.4	82	50.0	0	0	---	0.00	30.210 
00:15	55.3	55.3	55.3	82	49.9	0	0	---	0.00	30.206 
00:20	55.1	55.1	55.1	82	49.7	0	0	---	0.00	30.206 
00:25	55.0	55.0	55.0	83	49.9	0	0	---	0.00	30.206 
00:30	54.8	54.8	54.8	83	49.7	0	0	---	0.00	30.206 
00:35	54.7	54.7	54.7	84	50.0	0	0	---	0.00	30.206 
00:40	54.5	54.5	54.5	84	49.8	0	0	---	0.00	30.206 
00:45	54.5	54.5	54.5	84	49.8	0	0	---	0.00	30.203 
00:50	54.4	54.4	54.4	84	49.7	0	0	---	0.00	30.203 
00:55	54.2	54.2	54.2	84	49.5	0	0	---	0.00	30.203 
01:00	54.2	54.2	54.2	84	49.5	0	0	---	0.00	30.202 
01:05	54.1	54.1	54.1	85	49.7	0	0	---	0.00	30.202 
01:10	54.1	54.1	54.1	85	49.7	0	0	---	0.00	30.202 
01:15	54.1	54.1	54.1	85	49.7	0	0	---	0.00	30.201 
01:20	54.1	54.1	54.1	85	49.7	0	0	---	0.00	30.201 
01:25	54.1	54.1	54.1	85	49.7	0	0	---	0.00	30.201 
01:30	53.9	53.9	53.9	85	49.5	0	0	---	0.00	30.201 
01:35	53.9	53.9	53.9	85	49.5	0	0	---	0.00	30.201 
01:40	53.9	53.9	53.9	85	49.5	0	0	---	0.00	30.201 
01:45	53.8	53.8	53.8	85	49.4	0	0	---	0.00	30.202 
01:50	53.8	53.8	53.8	85	49.4	0	0	---	0.00	30.202 
01:55	53.8	53.8	53.8	85	49.4	0	0	---	0.00	30.202 
02:00	53.6	53.6	53.6	85	49.2	0	0	---	0.00	30.202 
02:05	53.6	53.6	53.6	85	49.2	0	0	---	0.00	30.202 
02:10	53.5	53.5	53.5	85	49.1	0	0	---	0.00	30.202 
02:15	53.5	53.5	53.5	86	49.4	0	0	---	0.00	30.200 
02:20	53.3	53.3	53.3	86	49.2	0	0	---	0.00	30.200 
02:25	53.3	53.3	53.3	86	49.2	0	0	---	0.00	30.200 
02:30	53.2	53.2	53.2	87	49.4	0	0	---	0.00	30.202 
02:35	53.2	53.2	53.2	87	49.4	0	0	---	0.00	30.202 
02:40	53.1	53.1	53.1	87	49.3	0	0	---	0.00	30.202 
02:45	52.9	52.9	52.9	87	49.1	0	0	---	0.00	30.203 
02:50	52.8	52.8	52.8	87	49.0	0	0	---	0.00	30.203 
02:55	52.8	52.8	52.8	88	49.3	0	0	---	0.00	30.203 
03:00	52.6	52.6	52.6	88	49.1	0	0	---	0.00	30.203 
03:05	52.5	52.5	52.5	88	49.0	0	0	---	0.00	30.203 
03:10	52.3	52.3	52.3	88	48.9	0	0	---	0.00	30.203 
03:15	52.2	52.2	52.2	88	48.8	0	0	---	0.00	30.203 
03:20	52.2	52.2	52.2	88	48.8	0	0	---	0.00	30.203 
03:25	52.0	52.0	52.0	88	48.6	0	0	---	0.00	30.203 
03:30	51.9	51.9	51.9	89	48.8	0	0	---	0.00	30.202 
03:35	51.9	51.9	51.9	89	48.8	0	0	---	0.00	30.202 
03:40	51.7	51.7	51.7	89	48.6	0	0	---	0.00	30.202 
03:45	51.6	51.6	51.6	89	48.5	0	0	---	0.00	30.199 
03:50	51.4	51.4	51.4	89	48.3	0	0	---	0.00	30.199 
03:55	51.3	51.3	51.3	89	48.2	0	0	---	0.00	30.199 
04:00	51.3	51.3	51.3	90	48.5	0	0	---	0.00	30.202 
04:05	51.3	51.3	51.3	90	48.5	0	0	---	0.00	30.202 
04:10	51.1	51.1	51.1	90	48.3	0	0	---	0.00	30.202 
04:15	51.1	51.1	51.1	90	48.3	0	0	---	0.00	30.200 
04:20	51.0	51.0	51.0	90	48.2	0	0	---	0.00	30.200 
04:25	50.8	50.8	50.8	90	48.0	0	0	---	0.00	30.200 
04:30	50.7	50.7	50.7	91	48.2	0	0	---	0.00	30.200 
04:35	50.5	50.5	50.5	91	48.0	0	0	---	0.00	30.200 
04:40	50.5	50.5	50.5	91	48.0	0	0	---	0.00	30.200 
04:45	50.5	50.5	50.5	91	48.0	0	0	---	0.00	30.199 
04:50	50.4	50.4	50.4	91	47.9	0	0	---	0.00	30.199 
04:55	50.4	50.4	50.4	91	47.9	0	0	---	0.00	30.199 
05:00	50.4	50.4	50.4	91	47.9	0	0	---	0.00	30.200 
05:05	50.2	50.2	50.2	92	48.0	0	0	---	0.00	30.200 
05:10	50.2	50.2	50.2	92	48.0	0	0	---	0.00	30.200 
05:15	50.1	50.1	50.1	92	47.9	0	0	---	0.00	30.198 
05:20	49.9	49.9	49.9	92	47.7	0	0	---	0.00	30.198 
05:25	49.9	49.9	49.9	92	47.7	0	0	---	0.00	30.198 
05:30	49.9	49.9	49.9	92	47.7	0	0	---	0.00	30.201 
05:35	49.9	49.9	49.9	92	47.7	0	0	---	0.00	30.201 
05:40	49.8	49.8	49.8	92	47.6	0	0	---	0.00	30.201 
05:45	49.8	49.8	49.8	92	47.6	0	0	---	0.00	30.202 
05:50	49.8	49.8	49.8	92	47.6	0	0	---	0.00	30.202 
05:55	49.8	49.8	49.8	92	47.6	0	0	---	0.00	30.202 
06:00	49.6	49.6	49.6	92	47.4	0	0	---	0.00	30.205 
06:05	49.6	49.6	49.6	92	47.4	0	0	---	0.00	30.205 
06:10	49.6	49.6	49.6	92	47.4	0	0	---	0.00	30.205 
06:15	49.6	49.6	49.6	92	47.4	0	0	---	0.00	30.211 
06:20	49.6	49.6	49.6	92	47.4	0	0	---	0.00	30.211 
06:25	49.6	49.6	49.6	93	47.7	0	0	---	0.00	30.211 
06:30	49.6	49.6	49.6	93	47.7	0	0	---	0.00	30.225 
06:35	49.5	49.5	49.5	93	47.6	0	0	---	0.00	30.225 
06:40	49.5	49.5	49.5	93	47.6	0	0	---	0.00	30.225 
06:45	49.4	49.4	49.4	93	47.5	0	0	---	0.00	30.228 
06:50	49.5	49.5	49.5	93	47.6	0	0	---	0.00	30.228 
06:55	49.4	49.4	49.4	93	47.5	0	0	---	0.00	30.228 
07:00	49.4	49.4	49.4	93	47.5	0	0	---	0.00	30.237 
07:05	49.4	49.4	49.4	93	47.5	0	0	---	0.00	30.237 
07:10	49.2	49.2	49.2	93	47.3	0	0	---	0.00	30.237 
07:15	49.2	49.2	49.2	93	47.3	0	0	---	0.00	30.244 
07:20	49.2	49.2	49.2	93	47.3	0	0	---	0.00	30.244 
07:25	49.4	49.4	49.4	93	47.5	0	0	---	0.00	30.244 
07:30	49.4	49.4	49.4	93	47.5	0	0	---	0.00	30.249 
07:35	49.4	49.4	49.4	93	47.5	0	0	---	0.00	30.249 
07:40	49.4	49.4	49.4	93	47.5	0	0	---	0.00	30.249 
07:45	49.4	49.4	49.4	93	47.5	0	0	---	0.00	30.258 
07:50	49.5	49.5	49.5	94	47.8	0	0	---	0.00	30.258 
07:55	49.6	49.6	49.6	94	47.9	0	0	---	0.00	30.258 
08:00	49.8	49.8	49.8	94	48.1	0	0	---	0.00	30.263 
08:05	49.9	49.9	49.9	94	48.2	0	0	---	0.00	30.263 
08:10	50.4	50.4	50.4	94	48.7	0	0	---	0.00	30.263 
08:15	50.8	50.8	50.8	95	49.4	0	0	---	0.00	30.267 
08:20	51.4	51.4	51.4	95	50.0	0	0	---	0.00	30.267 
08:25	52.2	52.2	52.2	95	50.8	0	1	90	0.00	30.267 
08:30	53.6	53.6	53.6	96	52.5	0	1	90	0.00	30.273 
08:35	54.8	54.8	54.8	96	53.7	0	2	90	0.00	30.273 
08:40	55.6	55.6	55.6	95	54.2	0	3	90	0.00	30.273 
08:45	56.0	56.0	56.0	95	54.6	0	2	90	0.00	30.273 
08:50	56.5	56.5	56.5	95	55.1	1	3	90	0.00	30.273 
08:55	56.9	56.9	56.9	95	55.5	2	4	90	0.00	30.273 
09:00	57.0	57.0	57.0	94	55.3	1	4	90	0.00	30.268 
09:05	57.2	57.2	57.2	94	55.5	0	2	90	0.00	30.268 
09:10	57.0	57.0	57.0	94	55.3	1	4	90	0.00	30.268 
09:15	56.9	56.9	56.9	94	55.2	0	2	90	0.00	30.276 
09:20	57.0	57.0	57.0	94	55.3	0	2	90	0.00	30.276 
09:25	57.2	57.2	57.2	94	55.5	0	2	90	0.00	30.276 
09:30	57.5	57.5	57.5	94	55.8	0	2	90	0.00	30.272 
09:35	57.5	57.5	57.5	94	55.8	0	2	90	0.00	30.272 
09:40	57.8	57.8	57.8	94	56.1	0	2	90	0.00	30.272 
09:45	58.0	58.0	58.0	94	56.3	0	2	90	0.00	30.275 
09:50	58.0	58.0	58.0	93	56.0	0	3	90	0.00	30.275 
09:55	58.0	58.0	58.0	94	56.3	0	3	90	0.00	30.275 
10:00	58.3	58.3	58.3	94	56.6	1	4	90	0.00	30.276 
10:05	58.9	58.9	58.9	93	56.9	1	2	90	0.00	30.276 
10:10	59.3	59.3	59.3	92	57.0	0	3	90	0.00	30.276 
10:15	59.6	59.6	59.6	91	57.0	1	4	90	0.00	30.274 
10:20	59.9	59.9	59.9	90	57.0	1	4	90	0.00	30.274 
10:25	60.5	60.5	60.5	89	57.2	1	4	90	0.00	30.274 
10:30	61.2	61.2	61.2	88	57.6	1	5	90	0.00	30.272 
10:35	62.0	62.0	62.0	87	58.1	1	4	90	0.00	30.272 
10:40	62.6	62.6	62.6	86	58.3	1	3	90	0.00	30.272 
10:45	62.9	62.9	62.9	85	58.3	3	5	90	0.00	30.273 
10:50	63.1	63.1	63.1	86	58.8	1	3	90	0.00	30.273 
10:55	63.4	63.4	63.4	84	58.5	1	4	90	0.00	30.273 
11:00	64.2	64.2	64.2	83	58.9	1	3	90	0.00	30.272 
11:05	64.8	64.8	64.8	81	58.8	1	4	90	0.00	30.272 
11:10	65.5	65.5	65.5	79	58.8	0	3	90	0.00	30.272 
11:15	66.0	66.0	66.0	79	59.3	0	3	90	0.00	30.270 
11:20	66.4	66.4	66.4	76	58.6	1	4	90	0.00	30.270 
11:25	66.8	66.8	66.8	73	57.9	1	3	90	0.00	30.270 
11:30	67.4	67.4	67.4	74	58.8	1	4	90	0.00	30.266 
11:35	67.9	67.9	67.9	73	58.9	1	6	90	0.00	30.266 
11:40	68.9	68.9	68.9	72	59.5	1	5	90	0.00	30.266 
11:45	69.4	69.4	69.4	70	59.2	1	4	90	0.00	30.258 
11:50	69.9	69.9	69.9	69	59.3	1	4	90	0.00	30.258 
11:55	70.3	70.3	70.3	69	59.6	1	4	90	0.00	30.258 
12:00	70.8	70.8	70.8	68	59.7	1	4	90	0.00	30.251 
12:05	71.3	71.3	71.3	66	59.3	1	4	90	0.00	30.251 
12:10	71.5	71.5	71.5	62	57.8	1	5	90	0.00	30.251 
12:15	71.8	71.8	71.8	62	58.1	1	4	68	0.00	30.250 
12:20	72.0	72.0	72.0	60	57.3	1	3	90	0.00	30.250 
12:25	72.3	72.3	72.3	61	58.1	1	4	90	0.00	30.250 
12:30	72.7	72.7	72.7	56	56.1	2	4	90	0.00	30.247 
12:35	73.0	73.0	73.0	56	56.4	1	4	90	0.00	30.247 
12:40	73.3	73.3	73.3	54	55.6	1	6	90	0.00	30.247 
12:45	73.7	73.7	73.7	52	55.0	1	4	90	0.00	30.244 
12:50	74.0	74.0	74.0	51	54.7	1	4	68	0.00	30.244 
12:55	74.4	74.4	74.4	46	52.3	1	4	68	0.00	30.244 
13:00	74.6	74.6	74.6	45	51.8	1	3	68	0.00	30.247 
13:05	74.6	74.6	74.6	44	51.2	2	6	90	0.00	30.247 
13:10	74.7	74.7	74.7	45	51.9	1	5	90	0.00	30.247 
13:15	74.9	74.9	74.9	47	53.3	2	4	90	0.00	30.242 
13:20	75.1	75.1	77.7	46	52.9	1	4	68	0.00	30.242 
13:25	75.3	75.3	77.7	46	53.1	1	5	68	0.00	30.242 
13:30	75.4	75.4	77.8	46	53.2	1	4	68	0.00	30.240 
13:35	75.4	75.4	77.7	44	52.0	2	6	68	0.00	30.240 
13:40	75.6	75.6	77.8	43	51.5	1	3	112	0.00	30.240 
13:45	76.0	76.0	78.0	44	52.5	1	4	90	0.00	30.232 
13:50	75.8	75.8	77.8	42	51.1	2	4	90	0.00	30.232 
13:55	75.8	75.8	77.9	44	52.3	1	5	90	0.00	30.232 
14:00	76.0	76.0	78.0	44	52.5	1	4	90	0.00	30.230 
14:05	76.0	76.0	78.0	44	52.5	1	3	68	0.00	30.230 
14:10	76.1	76.1	78.0	45	53.2	1	4	68	0.00	30.230 
14:15	76.1	76.1	78.0	44	52.6	2	6	68	0.00	30.228 
14:20	76.5	76.5	78.1	42	51.7	1	3	90	0.00	30.228 
14:25	76.5	76.5	78.0	40	50.4	1	5	90	0.00	30.228 
14:30	76.5	76.5	78.0	39	49.7	2	5	90	0.00	30.219 
14:35	76.5	76.5	78.0	40	50.4	1	4	90	0.00	30.219 
14:40	76.7	76.7	78.1	41	51.2	1	5	90	0.00	30.219 
14:45	77.0	77.0	78.3	42	52.1	1	3	90	0.00	30.212 
14:50	77.2	77.2	78.3	39	50.3	1	3	90	0.00	30.212 
14:55	77.2	77.2	78.3	40	51.0	1	3	202	0.00	30.212 
15:00	77.0	77.0	78.1	37	48.7	1	5	112	0.00	30.213 
15:05	77.2	77.2	78.3	39	50.3	1	5	68	0.00	30.213 
15:10	77.4	77.4	78.3	38	49.8	1	3	68	0.00	30.213 
15:15	77.4	77.4	78.4	39	50.5	0	2	68	0.00	30.206 
15:20	77.4	77.4	78.4	39	50.5	1	5	68	0.00	30.206 
15:25	77.4	77.4	78.5	41	51.8	1	4	90	0.00	30.206 
15:30	77.4	77.4	78.4	39	50.5	1	5	90	0.00	30.200 
15:35	77.4	77.4	78.3	37	49.1	1	4	90	0.00	30.200 
15:40	77.6	77.6	78.6	42	52.7	1	4	90	0.00	30.200 
15:45	77.6	77.6	78.4	38	50.0	1	4	90	0.00	30.197 
15:50	77.6	77.6	78.6	41	52.0	0	2	90	0.00	30.197 
15:55	77.6	77.6	78.5	40	51.3	0	2	90	0.00	30.197 
16:00	77.4	77.4	78.4	39	50.5	1	4	90	0.00	30.193 
16:05	77.4	77.4	78.4	40	51.2	1	4	90	0.00	30.193 
16:10	77.2	77.2	78.3	39	50.3	1	4	90	0.00	30.193 
16:15	77.2	77.2	78.3	39	50.3	1	4	90	0.00	30.188 
16:20	77.2	77.2	78.4	41	51.7	1	2	90	0.00	30.188 
16:25	77.0	77.0	78.1	38	49.4	1	4	90	0.00	30.188 
16:30	77.0	77.0	78.2	40	50.8	1	3	90	0.00	30.188 
16:35	77.0	77.0	78.3	42	52.1	1	3	90	0.00	30.188 
16:40	77.0	77.0	78.3	41	51.5	0	2	90	0.00	30.188 
16:45	77.2	77.2	78.5	43	52.9	0	1	90	0.00	30.186 
16:50	77.2	77.2	78.5	43	52.9	0	3	90	0.00	30.186 
16:55	77.2	77.2	78.5	43	52.9	0	2	90	0.00	30.186 
17:00	77.2	77.2	78.5	43	52.9	0	1	90	0.00	30.186 
17:05	77.2	77.2	78.5	43	52.9	0	2	90	0.00	30.186 
17:10	77.2	77.2	78.5	43	52.9	0	2	90	0.00	30.186 
17:15	77.0	77.0	78.4	43	52.8	0	4	90	0.00	30.185 
17:20	77.0	77.0	78.3	42	52.1	0	1	158	0.00	30.185 
17:25	76.8	76.8	78.3	44	53.2	0	1	158	0.00	30.185 
17:30	76.8	76.8	78.2	41	51.3	0	3	68	0.00	30.187 
17:35	77.0	77.0	78.3	42	52.1	0	1	68	0.00	30.187 
17:40	77.0	77.0	78.3	42	52.1	0	3	68	0.00	30.187 
17:45	77.0	77.0	78.4	45	54.0	0	3	112	0.00	30.185 
17:50	77.0	77.0	78.4	44	53.4	0	1	22	0.00	30.185 
17:55	76.8	76.8	78.3	43	52.6	0	2	22	0.00	30.185 
18:00	76.7	76.7	78.3	44	53.1	0	3	45	0.00	30.185 
18:05	76.7	76.7	78.3	45	53.7	0	2	45	0.00	30.185 
18:10	76.7	76.7	78.3	46	54.3	0	1	45	0.00	30.185 
18:15	76.7	76.7	78.3	46	54.3	0	2	45	0.00	30.182 
18:20	76.5	76.5	78.2	46	54.2	0	1	45	0.00	30.182 
18:25	76.5	76.5	78.2	45	53.6	0	3	90	0.00	30.182 
18:30	76.3	76.3	78.1	46	54.0	0	1	90	0.00	30.187 
18:35	76.1	76.1	78.0	46	53.8	0	2	90	0.00	30.187 
18:40	76.0	76.0	78.0	46	53.7	0	2	90	0.00	30.187 
18:45	75.8	75.8	78.0	48	54.7	0	1	90	0.00	30.190 
18:50	75.6	75.6	77.9	49	55.1	0	1	90	0.00	30.190 
18:55	75.3	75.3	77.7	50	55.4	0	1	90	0.00	30.190 
19:00	75.1	75.1	77.7	51	55.7	0	1	90	0.00	30.190 
19:05	74.7	74.7	74.7	52	55.9	0	1	90	0.00	30.190 
19:10	74.4	74.4	74.4	52	55.6	0	1	90	0.00	30.190 
19:15	74.0	74.0	74.0	54	56.3	0	1	90	0.00	30.190 
19:20	73.7	73.7	73.7	54	56.0	0	0	---	0.00	30.190 
19:25	73.3	73.3	73.3	55	56.1	0	0	---	0.00	30.190 
19:30	73.0	73.0	73.0	56	56.4	0	0	---	0.00	30.194 
19:35	72.5	72.5	72.5	56	55.9	0	1	90	0.00	30.194 
19:40	72.3	72.3	72.3	56	55.7	0	1	90	0.00	30.194 
19:45	72.0	72.0	72.0	57	55.9	0	2	90	0.00	30.192 
19:50	71.6	71.6	71.6	57	55.5	0	1	90	0.00	30.192 
19:55	71.3	71.3	71.3	57	55.3	0	1	90	0.00	30.192 
20:00	70.9	70.9	70.9	57	54.9	0	0	---	0.00	30.193 
20:05	70.6	70.6	70.6	55	53.6	0	1	90	0.00	30.193 
20:10	70.4	70.4	70.4	55	53.4	0	3	90	0.00	30.193 
20:15	70.1	70.1	70.1	53	52.2	1	3	90	0.00	30.189 
20:20	69.9	69.9	69.9	52	51.5	1	4	90	0.00	30.189 
20:25	69.8	69.8	69.8	51	50.8	1	4	90	0.00	30.189 
20:30	69.6	69.6	69.6	51	50.7	1	3	90	0.00	30.198 
20:35	69.3	69.3	69.3	50	49.8	1	3	90	0.00	30.198 
20:40	68.9	68.9	68.9	50	49.5	1	5	90	0.00	30.198 
20:45	68.6	68.6	68.6	50	49.2	1	2	90	0.00	30.205 
20:50	68.4	68.4	68.4	50	49.0	1	4	112	0.00	30.205 
20:55	68.1	68.1	68.1	51	49.3	1	2	112	0.00	30.205 
21:00	67.9	67.9	67.9	52	49.6	1	4	112	0.00	30.211 
21:05	67.6	67.6	67.6	52	49.3	1	3	112	0.00	30.211 
21:10	67.3	67.3	67.3	53	49.6	0	2	112	0.00	30.211 
21:15	66.8	66.8	66.8	54	49.6	0	1	112	0.00	30.212 
21:20	66.4	66.4	66.4	54	49.2	0	1	112	0.00	30.212 
21:25	66.1	66.1	66.1	55	49.5	0	1	112	0.00	30.212 
21:30	65.8	65.8	65.8	55	49.2	0	3	112	0.00	30.214 
21:35	65.5	65.5	65.5	56	49.4	0	2	112	0.00	30.214 
21:40	65.2	65.2	65.2	56	49.1	1	3	112	0.00	30.214 
21:45	65.0	65.0	65.0	56	48.9	0	2	90	0.00	30.214 
21:50	64.8	64.8	64.8	57	49.2	0	2	90	0.00	30.214 
21:55	64.5	64.5	64.5	57	48.9	0	2	90	0.00	30.214 
22:00	64.3	64.3	64.3	58	49.2	0	1	90	0.00	30.215 
22:05	64.2	64.2	64.2	58	49.1	0	2	90	0.00	30.215 
22:10	63.9	63.9	63.9	59	49.3	0	1	90	0.00	30.215 
22:15	63.7	63.7	63.7	60	49.5	0	2	90	0.00	30.211 
22:20	63.4	63.4	63.4	60	49.3	0	1	90	0.00	30.211 
22:25	63.4	63.4	63.4	60	49.3	0	1	90	0.00	30.211 
22:30	63.1	63.1	63.1	61	49.4	0	1	90	0.00	30.215 
22:35	62.9	62.9	62.9	62	49.7	0	1	90	0.00	30.215 
22:40	62.6	62.6	62.6	62	49.4	0	1	90	0.00	30.215 
22:45	62.4	62.4	62.4	63	49.6	0	0	---	0.00	30.216 
22:50	62.1	62.1	62.1	64	49.8	0	0	---	0.00	30.216 
22:55	61.8	61.8	61.8	64	49.5	0	1	90	0.00	30.216 
23:00	61.6	61.6	61.6	65	49.7	0	1	90	0.00	30.217 
23:05	61.3	61.3	61.3	65	49.4	0	1	90	0.00	30.217 
23:10	61.2	61.2	61.2	66	49.7	0	1	90	0.00	30.217 
23:15	61.0	61.0	61.0	66	49.6	0	0	---	0.00	30.214 
23:20	60.9	60.9	60.9	67	49.9	0	1	90	0.00	30.214 
23:25	60.7	60.7	60.7	67	49.7	0	1	90	0.00	30.214 
23:30	60.7	60.7	60.7	67	49.7	0	1	90	0.00	30.214 
23:35	60.4	60.4	60.4	68	49.8	0	0	---	0.00	30.214 
23:40	60.2	60.2	60.2	69	50.0	0	0	---	0.00	30.214 
23:45	59.9	59.9	59.9	69	49.7	0	0	---	0.00	30.216 
23:50	59.6	59.6	59.6	70	49.8	0	0	---	0.00	30.216 
23:55	59.3	59.3	59.3	72	50.3	0	0	---	0.00	30.216 

CoCoRaHS
IN-AL-39
A2 Web Hosting
Creative Commons License
GoDaddy
search engine by freefind advanced

loaded 2018-11-16 11:50:37 • last modified 2010-11-18 10:43:29
Privacy PolicyDisclaimer
• wx.awcolley.com is powered by PmWiki v.2002016 •
• all content (unless otherwise noted) © 2018 A W Colley